Regional Weather Roundup
Issued by NWS

Home | Current Version | Previous Version | Text Only | Print | Product List | Glossary Off
Versions: 1 2 3 4 5 6 7 8 9 10 11 12 13 14 15 16 17 18 19 20 21 22 23 24 25 26 27 28 29 30 31 32 33 34 35 36 37 38 39 40 41 42 43 44 45 46 47 48 49 50

000
ASUS43 KIND 290059
RWRIN

WEATHER ROUNDUP FOR INDIANA
NATIONAL WEATHER SERVICE INDIANAPOLIS IN
900 PM EDT THU JUL 28 2016

NOTE: "FAIR" INDICATES FEW OR NO CLOUDS BELOW 12,000 FEET WITH NO
SIGNIFICANT WEATHER AND/OR OBSTRUCTIONS TO VISIBILITY.

* - STATION DOES NOT REPORT WEATHER SUCH AS PRECIPITATION OR FOG.

+ - STATION NOT QUALITY CONTROLLED BY THE NATIONAL WEATHER SERVICE.
    USE DATA WITH CAUTION...ESPECIALLY DEWPOINT AND RELATIVE
    HUMIDITY OBSERVATIONS.

INZ001>003-010>013-019-020-290200-
NORTHWEST INDIANA

CITY           SKY/WX    TMP DP  RH WIND       PRES   REMARKS
GARY /AIRPORT/ MOCLDY    77  75  94 N7        29.90S
KNOX *+        MOCLDY    72  61  68 E3        29.88F
MONTICELLO +   PTCLDY    79  69  72 CALM      29.87S
RENSSELAER +   CLEAR     75  72  88 CALM      29.88F

$$

LMZ046-743>745-290200-
SOUTHERN LAKE MICHIGAN

STATION/POSITION TIME  TEMP    WIND        PRES    WAVE
                       AIR SEA DIR/SP/G            HT
                 (UTC) (F)     (DEG/KT/KT) (MB)    (FT)
BURNS HARBOR     0000   77      20/  4/  5 1012.2S
MICHIGAN CITY    0000   77      90/  8/ 10   N/A
5NW MICH CITY    0000   78 76   80/  4/  6   N/A     1

$$

INZ004-005-014>016-021>024-290200-
NORTH CENTRAL INDIANA

CITY           SKY/WX    TMP DP  RH WIND       PRES   REMARKS
ELKHART        CLOUDY    72  68  88 NE6       29.90F
GOSHEN         CLOUDY    72  66  81 CALM      29.89F
SOUTH BEND     CLOUDY    71  67  87 E5        29.89S

$$

INZ006>009-017-018-025>027-290200-
NORTHEAST INDIANA

CITY           SKY/WX    TMP DP  RH WIND       PRES   REMARKS
ANGOLA *+        N/A     79  72  78 NE5       29.90F
FORT WAYNE     CLOUDY    76  70  82 CALM      29.88S

$$

INZ028-029-035-036-043>045-051>053-290200-
WEST CENTRAL INDIANA

CITY           SKY/WX    TMP DP  RH WIND       PRES   REMARKS
CRAWFORDSVL +  PTCLDY    74  74 100 S3        29.89S
GREENCASTLE +  MOCLDY    70  70 100 CALM      29.91R
LAFAYETTE      CLEAR     78  72  81 CALM      29.87S
TERRE HAUTE    MOCLDY    74  68  81 E5        29.88S

$$

INZ030>032-037>040-046>048-054>057-064-065-290200-
CENTRAL INDIANA

CITY           SKY/WX    TMP DP  RH WIND       PRES   REMARKS
COLUMBUS       PTCLDY    75  73  94 N6        29.91R
INDIANAPOLIS   CLOUDY    77  67  71 SE10      29.90R
-EAGLE CREEK   CLOUDY    79  68  69 S7        29.89R
KOKOMO *+      MOCLDY    81  66  61 W3        29.89R
SHELBYVILLE    CLOUDY    70  66  87 SW7       29.89F

$$

INZ033-034-041-042-049-050-058-059-290200-
EAST CENTRAL INDIANA

CITY           SKY/WX    TMP DP  RH WIND       PRES   REMARKS
MUNCIE         PTCLDY    79  69  71 CALM      29.89R

$$

INZ060-061-067>069-081>083-085>088-290200-
SOUTHWEST INDIANA

CITY           SKY/WX    TMP DP  RH WIND       PRES   REMARKS
EVANSVILLE     MOCLDY    78  71  79 NW23G31   29.91R THUNDER
HUNTINGBURG *+ MOCLDY    75  66  73 E7        29.90R

$$

INZ062-063-066-070>080-084-089>092-290200-
SOUTH CENTRAL AND SOUTHEAST INDIANA

CITY           SKY/WX    TMP DP  RH WIND       PRES   REMARKS
BLOOMINGTON    PTCLDY    73  67  81 SE5       29.90R
MADISON *+     CLOUDY    73  70  88 CALM      29.92R
SEYMOUR +      MOCLDY    75  73  94 CALM      29.89S

$$





USA.gov is the U.S. government's official web portal to all federal, state and local government web resources and services.